Miscellaneous Local Product
Issued by NWS Hastings, NE

Home | Current Version | Previous Version | Text Only | Print | Product List | Glossary On
Versions: 1 2 3 4 5 6 7 8 9 10 11 12 13 14 15 16 17 18 19 20 21 22 23 24 25 26 27 28 29 30 31 32 33 34 35 36 37 38 39 40 41 42 43 44 45 46 47 48 49 50
444
AXUS43 KGID 090002
MISGRI

GID CWA HOURLY WEATHER ROUNDUP
NATIONAL WEATHER SERVICE HASTINGS NE
600 PM CST THU DEC 08 2016

NOTE: "FAIR" INDICATES FEW OR NO CLOUDS BELOW 12,000 FEET WITH NO
SIGNIFICANT WEATHER AND/OR OBSTRUCTIONS TO VISIBILITY.

...SOUTH CENTRAL NEBRASKA...

CITY           SKY/WX    TMP DP  RH WIND       PRES   REMARKS
GRAND ISLAND   CLEAR     16   4  59 NW6       30.61S WCI   7
HASTINGS       CLEAR     15   3  59 N3        30.60F
KEARNEY        CLEAR     18   0  45 CALM      30.58F
ORD            CLEAR     10  -2  58 NW6       30.58S WCI   0
YORK           CLEAR     14   5  67 N7        30.62S WCI   4
AURORA         CLEAR     16   3  56 N5        30.60F WCI   9
LEXINGTON      CLEAR     17   0  48 N3        30.57R
HOLDREGE       CLEAR     15   2  56 CALM      30.57S
HEBRON         CLEAR     19   7  60 N3        30.63S

...NEBRASKA PANHANDLE...

CITY           SKY/WX    TMP DP  RH WIND       PRES   REMARKS
CHADRON        CLOUDY     6  -4  63 E5        30.46S WCI  -3
ALLIANCE       CLEAR      4  -4  69 S7        30.41S WCI  -8
SCOTTSBLUFF    CLEAR      8  -1  66 E8        30.39F WCI  -4
SIDNEY         CLOUDY     4  -3  73 SE7       30.40S WCI  -8

...WESTERN AND NORTH CENTRAL NEBRASKA...

CITY           SKY/WX    TMP DP  RH WIND       PRES   REMARKS
VALENTINE      CLEAR      6  -4  63 NW3       30.56S
AINSWORTH      CLEAR     10  -1  61 CALM      30.56R
ONEILL         CLEAR     12   1  62 NW7       30.59S WCI   2
BROKEN BOW     CLEAR      9  -2  61 N5        30.55S WCI   1
IMPERIAL       CLOUDY     7  -2  66 SE5       30.51S WCI  -2
NORTH PLATTE   CLEAR     14   2  58 SW6       30.54R WCI   5
MCCOOK         CLOUDY    14   3  61 SW5       30.57S WCI   6

...EASTERN NEBRASKA...

CITY           SKY/WX    TMP DP  RH WIND       PRES   REMARKS
NORFOLK        CLEAR     13   2  61 NW5       30.61R WCI   5
SO SIOUX CITY  CLEAR     20   7  57 NW12      30.62R WCI   8
TEKAMAH        CLEAR     17   7  64 NW7       30.63R WCI   8
COLUMBUS       CLEAR     16   1  53 NW6       30.63R WCI   7
ALBION         CLEAR     15   3  58 CALM      30.60S
OMAHA EPPLEY   CLEAR     19   7  59 NW8       30.63R WCI   9
OFFUTT AFB     CLEAR     21   7  55 NW8       30.62S WCI  11
MILLARD        CLEAR     24   9  54 NW3       30.63S
LINCOLN        CLEAR     21   7  54 NW6       30.65R WCI  13
NEBRASKA CITY  CLEAR     19   6  58 NW7       30.62S WCI   9
BEATRICE       CLEAR     17   8  68 NW5       30.63R WCI   9
FALLS CITY     CLEAR     19  10  68 NW8       30.63S WCI   9

...NORTHERN KANSAS...

CITY           SKY/WX    TMP DP  RH WIND       PRES   REMARKS
GOODLAND       CLOUDY     7   0  73 SE9       30.48F WCI  -7
HILL CITY      CLEAR     11   0  61 N5        30.61S WCI   3
NORTON         CLEAR     10   0  61 W3        30.58F
PHILLIPSBURG   CLEAR     16   7  67 CALM      30.63S
SMITH CENTER   CLEAR     12   7  79 W3        30.63S
BELOIT         CLEAR     18   7  62 W3        30.64S
HAYS           CLEAR     18   6  59 N6        30.62S WCI  10
RUSSELL        CLEAR     17   6  62 N7        30.62S WCI   8
CONCORDIA      CLEAR     20   8  60 N5        30.63S WCI  13
SALINA         CLEAR     20   9  62 W7        30.66F WCI  11
TOPEKA         CLEAR     23  10  57 W5        30.65S WCI  17



USA.gov is the U.S. government's official web portal to all federal, state and local government web resources and services.